Regional Weather Roundup
Issued by NWS

Home | Current Version | Previous Version | Text Only | Print | Product List | Glossary Off
Versions: 1 2 3 4 5 6 7 8 9 10 11 12 13 14 15 16 17 18 19 20 21 22 23 24 25 26 27 28 29 30 31 32 33 34 35 36 37 38 39 40 41 42 43 44 45 46 47 48 49 50

000
ASUS43 KOAX 302302
RWRNE

WEATHER ROUNDUP FOR NEBRASKA
NATIONAL WEATHER SERVICE OMAHA NE
600 PM CDT TUE JUN 30 2015

NOTES: SATELLITE DATA IS BEING USED TO AUGMENT CLOUD COVER ABOVE
       12000 FEET.
       "FAIR" INDICATES FEW OR NO CLOUDS BELOW 12,000 FEET WITH NO
       SIGNIFICANT WEATHER AND/OR OBSTRUCTIONS TO VISIBILITY.

  * THESE STATIONS DO NOT REPORT WEATHER SUCH AS RAIN...SNOW OR FOG.

NEZ001>004-019>022-054>056-010000-
NEBRASKA PANHANDLE

CITY           SKY/WX    TMP DP  RH WIND       PRES   REMARKS
SCOTTSBLUFF    PTSUNNY   96  53  23 W8        29.92F HX  93
ALLIANCE       MOSUNNY   89  59  36 SW5       29.90F
CHADRON        PTSUNNY   88  65  46 NW6       29.87S HX  90
KIMBALL          N/A    N/A N/A N/A MISG        N/A
SIDNEY         MOSUNNY   89  58  34 SW6       29.97F
$$

NEZ057>060-069>072-079>082-010000-
SOUTHWEST NEBRASKA

CITY           SKY/WX    TMP DP  RH WIND       PRES   REMARKS
NORTH PLATTE   PTSUNNY   92  62  36 S5        29.84F HX  92
IMPERIAL       PTSUNNY   95  52  23 W6        29.88F HX  92
LEXINGTON      CLOUDY    94  58  30 SE7       29.84F HX  93
MCCOOK         MOSUNNY  100  48  17 CALM      29.84F HX  96
$$

NEZ005>010-023>029-035>040-094-010000-
NORTH CENTRAL NEBRASKA

CITY           SKY/WX    TMP DP  RH WIND       PRES   REMARKS
VALENTINE      PTSUNNY   84  67  56 SE14      29.85F
AINSWORTH      CLOUDY    80  66  63 E13       29.87F
BROKEN BOW     PTSUNNY   90  68  48 SE7       29.85F HX  94
ORD            CLOUDY    83  68  60 E13       29.84F
$$

NEZ041-046>049-061>064-073>077-083>087-010000-
SOUTH CENTRAL NEBRASKA

CITY           SKY/WX    TMP DP  RH WIND       PRES   REMARKS
GRAND ISLAND   CLOUDY    85  69  58 E12       29.85F
AURORA         CLOUDY    84  69  60 E8        29.86S
HASTINGS       PTSUNNY   92  61  35 CALM      29.84F HX  92
KEARNEY *      CLOUDY    90  66  45 S3        29.84F HX  92
$$

NEZ011>018-030>034-042>045-010000-
NORTHEAST NEBRASKA

CITY           SKY/WX    TMP DP  RH WIND       PRES   REMARKS
NORFOLK        PTSUNNY   76  65  68 E6        29.89F
COLUMBUS *     CLOUDY   N/A N/A N/A MISG        N/A
FREMONT        CLOUDY    77  63  62 E8        29.88F
TEKAMAH        CLOUDY    75  67  76 N3        29.88F
$$

NEZ050>053-065>068-078-088>093-010000-
SOUTHEAST NEBRASKA

CITY           SKY/WX    TMP DP  RH WIND       PRES   REMARKS
LINCOLN        CLOUDY    81  62  52 E9        29.88S
OMAHA EPPLEY   CLOUDY    75  64  68 SE3       29.88F
BEATRICE       CLOUDY    84  67  56 E13G18    29.86S
FALLS CITY     CLOUDY    79  68  69 E7        29.87F
NEBRASKA CITY  CLOUDY    78  62  58 E7        29.89F
PLATTSMOUTH    CLOUDY    76  64  64 CALM      29.89S
$$

NEZ044-045-051>053-067-010000-
OMAHA AREA

CITY           SKY/WX    TMP DP  RH WIND       PRES   REMARKS
OMAHA EPPLEY   CLOUDY    75  64  68 SE3       29.88F
FREMONT        CLOUDY    77  63  62 E8        29.88F
MILLARD        CLOUDY    77  65  66 E5        29.88F
OFFUTT AFB     CLOUDY    76  66  71 E6        29.88S
PLATTSMOUTH    CLOUDY    76  64  64 CALM      29.89S
WAHOO          FAIR      77  64  63 E9        29.88F
$$


USA.gov is the U.S. government's official web portal to all federal, state and local government web resources and services.